Location: Mapua
(41.2500°S, 173.1000°E)
Time: 13:57:56
(UTC+12:00)

Tiangong 1 - Visible Passes

Search period start: 25 June 2017 00:00
Search period end: 05 July 2017 00:00
Orbit: 321 x 344 km, 42.8° (Epoch: 24 June)

Date Brightness Start Highest point End Pass type
(mag) Time Alt. Az. Time Alt. Az. Time Alt. Az.
26 Jun 4.3 06:22:37 10° NNE 06:23:04 10° NE 06:23:32 10° NE visible
27 Jun 3.2 06:39:45 10° NNW 06:42:08 23° NNE 06:44:32 10° E visible
28 Jun 1.6 06:58:30 10° NW 07:01:17 50° NNE 07:04:08 10° E visible
29 Jun 3.2 05:45:34 22° NE 05:45:34 22° NE 05:47:33 10° E visible
29 Jun 0.8 07:17:39 10° WNW 07:20:32 87° SSW 07:23:28 10° ESE visible
30 Jun 1.6 06:04:20 49° NNE 06:04:20 49° NNE 06:07:04 10° E visible
01 Jul 0.7 06:22:55 57° W 06:23:24 88° S 06:26:18 10° ESE visible
02 Jul 0.9 06:41:20 28° WSW 06:42:36 63° S 06:45:29 10° ESE visible
03 Jul 4.1 05:28:29 14° ESE 05:28:29 14° ESE 05:29:00 10° ESE visible
03 Jul 0.9 06:59:37 16° WSW 07:01:47 62° S 07:04:40 10° E visible
04 Jul 3.1 05:46:41 25° ESE 05:46:41 25° ESE 05:48:05 10° ESE visible
04 Jul 0.8 07:18:01 10° WSW 07:20:54 83° SSE 07:23:48 10° E visible
